TimeCST,TemperatureF,Dew PointF,Humidity,Sea Level PressureIn,VisibilityMPH,Wind Direction,Wind SpeedMPH,Gust SpeedMPH,PrecipitationIn,Events,Conditions,WindDirDegrees,DateUTC
12:13 AM,28.4,19.4,69,30.05,10.0,North,11.5,18.4,N/A,,Overcast,360,2013-02-28 06:13:00
12:33 AM,28.4,19.4,69,30.06,10.0,North,10.4,16.1,N/A,,Overcast,10,2013-02-28 06:33:00
12:52 AM,28.4,19.4,69,30.06,10.0,North,11.5,16.1,N/A,,Overcast,360,2013-02-28 06:52:00
1:13 AM,28.4,19.4,69,30.06,10.0,North,10.4,-,N/A,,Overcast,10,2013-02-28 07:13:00
1:33 AM,28.4,19.4,69,30.07,10.0,North,9.2,-,N/A,,Overcast,360,2013-02-28 07:33:00
1:52 AM,28.4,19.4,69,30.07,10.0,North,10.4,-,N/A,,Overcast,10,2013-02-28 07:52:00
2:13 AM,28.4,19.4,69,30.07,10.0,North,8.1,-,N/A,,Overcast,360,2013-02-28 08:13:00
2:32 AM,26.6,19.4,74,30.07,10.0,North,9.2,-,N/A,,Overcast,350,2013-02-28 08:32:00
2:52 AM,26.6,17.6,69,30.08,10.0,North,9.2,-,N/A,,Overcast,360,2013-02-28 08:52:00
3:13 AM,26.6,17.6,69,30.08,10.0,North,10.4,-,N/A,,Overcast,350,2013-02-28 09:13:00
3:32 AM,26.6,17.6,69,30.09,10.0,North,11.5,-,N/A,,Overcast,350,2013-02-28 09:32:00
3:52 AM,26.6,17.6,69,30.09,10.0,North,5.8,-,N/A,,Overcast,360,2013-02-28 09:52:00
4:13 AM,26.6,17.6,69,30.10,10.0,North,8.1,-,N/A,,Overcast,350,2013-02-28 10:13:00
4:32 AM,26.6,17.6,69,30.10,10.0,North,11.5,-,N/A,,Overcast,360,2013-02-28 10:32:00
4:53 AM,26.6,17.6,69,30.11,10.0,NNE,9.2,16.1,N/A,,Overcast,20,2013-02-28 10:53:00
5:13 AM,26.6,17.6,69,30.11,10.0,NNE,5.8,-,N/A,,Overcast,20,2013-02-28 11:13:00
5:32 AM,26.6,17.6,69,30.12,10.0,NNE,5.8,-,N/A,,Overcast,20,2013-02-28 11:32:00
5:52 AM,26.6,17.6,69,30.12,10.0,NNE,5.8,-,N/A,,Overcast,20,2013-02-28 11:52:00
6:13 AM,26.6,17.6,69,30.12,10.0,North,5.8,-,N/A,,Overcast,10,2013-02-28 12:13:00
6:32 AM,26.6,17.6,69,30.12,10.0,North,6.9,-,N/A,,Overcast,10,2013-02-28 12:32:00
6:52 AM,26.6,17.6,69,30.13,10.0,North,10.4,-,N/A,,Overcast,10,2013-02-28 12:52:00
7:13 AM,26.6,15.8,64,30.14,10.0,NNE,11.5,-,N/A,,Overcast,20,2013-02-28 13:13:00
7:32 AM,26.6,15.8,64,30.14,10.0,North,9.2,-,N/A,,Overcast,10,2013-02-28 13:32:00
7:52 AM,26.6,15.8,64,30.15,10.0,NNE,9.2,-,N/A,,Overcast,20,2013-02-28 13:52:00
8:13 AM,26.6,15.8,64,30.15,10.0,NNE,8.1,-,N/A,,Overcast,30,2013-02-28 14:13:00
8:32 AM,24.8,15.8,69,30.15,10.0,NNE,10.4,-,N/A,,Overcast,20,2013-02-28 14:32:00
8:52 AM,24.8,15.8,69,30.16,10.0,NNE,8.1,-,N/A,,Overcast,30,2013-02-28 14:52:00
9:13 AM,24.8,15.8,69,30.16,10.0,NNE,11.5,-,N/A,,Overcast,30,2013-02-28 15:13:00
9:32 AM,24.8,15.8,69,30.16,10.0,NNE,8.1,-,N/A,,Overcast,30,2013-02-28 15:32:00
9:52 AM,24.8,15.8,69,30.17,10.0,NE,10.4,-,N/A,,Overcast,40,2013-02-28 15:52:00
10:13 AM,24.8,14.0,64,30.17,10.0,NNE,10.4,18.4,N/A,,Overcast,30,2013-02-28 16:13:00
10:32 AM,24.8,15.8,69,30.17,10.0,NNE,9.2,-,N/A,,Overcast,30,2013-02-28 16:32:00
10:52 AM,24.8,14.0,64,30.18,10.0,NNE,10.4,-,N/A,,Overcast,20,2013-02-28 16:52:00
11:13 AM,26.6,14.0,59,30.18,10.0,NE,8.1,-,N/A,,Overcast,50,2013-02-28 17:13:00
11:32 AM,26.6,14.0,59,30.18,10.0,NNE,8.1,-,N/A,,Overcast,30,2013-02-28 17:32:00
11:52 AM,26.6,14.0,59,30.18,10.0,NNE,8.1,-,N/A,,Overcast,30,2013-02-28 17:52:00
12:32 PM,26.6,14.0,59,30.18,10.0,NE,5.8,-,N/A,,Overcast,50,2013-02-28 18:32:00
12:52 PM,26.6,12.2,55,30.18,10.0,NNE,6.9,-,N/A,,Overcast,30,2013-02-28 18:52:00
1:13 PM,26.6,12.2,55,30.18,10.0,NNE,6.9,-,N/A,,Overcast,30,2013-02-28 19:13:00
1:32 PM,26.6,14.0,59,30.18,10.0,North,9.2,-,N/A,,Overcast,10,2013-02-28 19:32:00
1:52 PM,26.6,12.2,55,30.17,10.0,NNE,9.2,-,N/A,,Mostly Cloudy,30,2013-02-28 19:52:00
2:13 PM,28.4,12.2,51,30.17,10.0,ENE,5.8,-,N/A,,Scattered Clouds,60,2013-02-28 20:13:00
2:32 PM,28.4,12.2,51,30.17,10.0,North,8.1,-,N/A,,Clear,10,2013-02-28 20:32:00
2:52 PM,28.4,12.2,51,30.17,10.0,NNE,4.6,-,N/A,,Clear,30,2013-02-28 20:52:00
3:13 PM,30.2,12.2,47,30.17,10.0,North,8.1,-,N/A,,Clear,10,2013-02-28 21:13:00
3:32 PM,30.2,12.2,47,30.17,10.0,NE,5.8,-,N/A,,Clear,50,2013-02-28 21:32:00
3:52 PM,30.2,12.2,47,30.17,10.0,North,4.6,-,N/A,,Clear,360,2013-02-28 21:52:00
4:13 PM,30.2,12.2,47,30.17,10.0,North,5.8,-,N/A,,Clear,10,2013-02-28 22:13:00
4:32 PM,30.2,12.2,47,30.17,10.0,NNE,6.9,-,N/A,,Clear,30,2013-02-28 22:32:00
4:53 PM,30.2,12.2,47,30.17,10.0,NNE,5.8,-,N/A,,Clear,20,2013-02-28 22:53:00
5:12 PM,30.2,12.2,47,30.18,10.0,NNE,5.8,-,N/A,,Clear,30,2013-02-28 23:12:00
5:32 PM,30.2,12.2,47,30.18,10.0,NNE,4.6,-,N/A,,Clear,20,2013-02-28 23:32:00
5:53 PM,28.4,12.2,51,30.18,10.0,North,3.5,-,N/A,,Clear,360,2013-02-28 23:53:00
6:12 PM,26.6,12.2,55,30.19,10.0,North,5.8,-,N/A,,Clear,350,2013-03-01 00:12:00
6:32 PM,26.6,12.2,55,30.20,10.0,North,5.8,-,N/A,,Clear,360,2013-03-01 00:32:00
6:53 PM,26.6,12.2,55,30.20,10.0,North,3.5,-,N/A,,Clear,10,2013-03-01 00:53:00
7:12 PM,26.6,10.4,51,30.20,10.0,North,4.6,-,N/A,,Clear,10,2013-03-01 01:12:00
7:32 PM,26.6,10.4,51,30.21,10.0,NNE,3.5,-,N/A,,Clear,20,2013-03-01 01:32:00
7:53 PM,24.8,10.4,54,30.21,10.0,NE,4.6,-,N/A,,Clear,50,2013-03-01 01:53:00
8:12 PM,24.8,10.4,54,30.21,10.0,NE,4.6,-,N/A,,Clear,50,2013-03-01 02:12:00
8:32 PM,24.8,12.2,59,30.22,10.0,Calm,Calm,-,N/A,,Clear,0,2013-03-01 02:32:00
8:53 PM,23.0,12.2,63,30.23,10.0,ENE,3.5,-,N/A,,Clear,70,2013-03-01 02:53:00
9:12 PM,23.0,12.2,63,30.23,10.0,East,4.6,-,N/A,,Clear,80,2013-03-01 03:12:00
9:32 PM,21.2,12.2,68,30.23,10.0,East,4.6,-,N/A,,Clear,80,2013-03-01 03:32:00
9:53 PM,21.2,12.2,68,30.24,10.0,ENE,3.5,-,N/A,,Clear,60,2013-03-01 03:53:00
10:12 PM,21.2,12.2,68,30.24,10.0,Calm,Calm,-,N/A,,Clear,0,2013-03-01 04:12:00
10:32 PM,21.2,12.2,68,30.24,10.0,Calm,Calm,-,N/A,,Clear,0,2013-03-01 04:32:00
10:53 PM,21.2,12.2,68,30.24,10.0,Calm,Calm,-,N/A,,Clear,0,2013-03-01 04:53:00
11:12 PM,21.2,12.2,68,30.24,10.0,Calm,Calm,-,N/A,,Clear,0,2013-03-01 05:12:00
11:32 PM,19.4,10.4,68,30.24,10.0,Calm,Calm,-,N/A,,Clear,0,2013-03-01 05:32:00
11:53 PM,17.6,10.4,73,30.24,10.0,Calm,Calm,-,N/A,,Clear,0,2013-03-01 05:53:00